Location: Rounton
(54.4000°N, 1.3500°W)
Time: 22:07:59
(UTC+01:00)

YAOGAN 20A - Pass Details

Date: 29 June 2022
Orbit: 891 x 1288 km, 63.4° (Epoch: 18 August)

Event Time Altitude Azimuth Distance (km) Brightness Sun altitude
Rises 00:35:09 0° 305° (NW) 3,753 8.6 -12.0°
Reaches altitude 10° 00:37:43 10° 309° (NW) 2,854 8.0 -12.1°
Maximum altitude 00:44:27 60° 29° (NNE) 1,266 5.8 -12.2°
Drops below altitude 10° 00:51:51 10° 110° (ESE) 3,133 7.3 -12.3°
Sets 00:54:47 0° 114° (ESE) 4,144 7.9 -12.3°
